Location: Christian Reformed Church
(43.0975°N, 93.8113°W)
Time: 12:52:57
(UTC+00:00)

Okean 1-7 Rocket - Pass Details

Date: 16 March 2026
Orbit: 609 x 643 km, 82.5° (Epoch: 14 April)

Event Time Altitude Azimuth Distance (km) Brightness Sun altitude
Rises 01:52:30 0° 229° (SW) 2,942 7.5 -17.2°
Reaches altitude 10° 01:55:26 10° 249° (WSW) 2,038 7.0 -17.7°
Maximum altitude 01:58:25 17° 290° (WNW) 1,619 6.7 -18.3°
Drops below altitude 10° 02:01:25 10° 332° (NNW) 2,044 6.8 -18.8°
Sets 02:04:23 0° 352° (N) 2,955 7.4 -19.3°
